[[{"header":{"parameterUnit":"m.s-1","parameterCategory":1,"la1":30.2991,"la2":30.254,"lo1":-89.0895,"lo2":-89.0444,"dy":0.0017,"dx":0.0017,"nx":28,"ny":28,"refTime":"2024-11-29T03:00:00:Z","depth":0,"parameterNumber":2,"parameterNumberName":"U-component_of_WINDS"},"data":[0,0,0,0,0,0,0,0,0,0,0,0,0,0,0,0,0,0,0,0,0,0,0,0,0,0,0,0,0,0,0,0,0,0,0,0,0,0,0,0,0,0,0,0,0,0,0,0,0,0,0,0,0,0,0,0,0,0,-4.1177,-4.1178,0,-4.1253,-4.1253,-4.1254,-4.1118,-4.1113,-4.1108,-4.1104,-4.1183,-4.1189,-4.1195,0,0,0,0,0,0,0,0,0,0,0,0,0,-4.0914,-4.092,-4.1177,-4.1178,-4.1179,-4.1252,-4.1253,-4.1254,-4.1118,-4.1113,-4.1107,-4.1102,-4.1181,-4.1188,-4.1196,0,0,0,0,0,0,0,0,0,0,0,0,0,-4.1013,-4.0922,-4.1177,-4.112,-4.1115,-4.1252,-4.1253,-4.1255,-4.112,-4.1113,-4.1106,-4.1099,-4.1178,-4.1187,-4.1197,-4.1393,0,0,-4.1226,-4.123,0,0,0,0,0,0,0,0,-4.1008,-4.1023,-4.1127,-4.1124,-4.1119,-4.1168,-4.1189,-4.1301,-4.1121,-4.1118,-4.1104,-4.1096,-4.1184,-4.1192,-4.1222,-4.1397,-4.14,-4.1227,-4.1233,-4.1237,-4.1239,0,0,0,0,0,0,0,-4.1001,-4.1019,-4.1207,-4.1129,-4.1124,-4.109,-4.1097,-4.121,-4.1188,-4.1118,-4.1108,-4.1119,-4.118,-4.1213,-4.1222,-4.1401,-4.1227,-4.1235,-4.1241,-4.1245,-4.1741,-4.1748,0,0,0,0,0,0,-4.1001,-4.1014,-4.1204,-4.1209,-4.1045,-4.1101,-4.1108,-4.116,-4.1187,-4.1184,-4.1125,-4.1112,-4.12,-4.1211,-4.1225,-4.1456,-4.1237,-4.1246,-4.1251,-4.1733,-4.1742,-4.175,0,0,0,0,0,0,-4.0996,-4.102,-4.1201,-4.1109,-4.113,-4.1112,-4.1172,-4.1165,-4.1197,-4.1192,-4.1187,-4.1162,-4.1195,-4.1211,-4.1352,-4.1457,-4.125,-4.1259,-4.1724,-4.1736,-4.1746,-4.1922,0,0,0,0,0,0,-4.0989,-4.1019,-4.1093,-4.1112,-4.1135,-4.1328,-4.1178,-4.1171,-4.1214,-4.1198,-4.1226,-4.1224,-4.1191,-4.1339,-4.1362,-4.1467,-4.1266,-4.1715,-4.173,-4.1743,-4.1907,-4.1938,-4.1964,0,0,0,0,0,-4.098,-4.114,-4.1098,-4.1121,-4.1228,-4.1335,-4.1348,-4.1306,-4.1223,-4.1298,-4.1294,-4.1223,-4.1442,-4.1354,-4.1379,-4.1489,-4.1708,-4.1725,-4.1742,-4.1894,-4.1932,-4.1964,0,0,0,0,0,0,-4.1135,-4.1142,-4.1095,-4.1265,-4.13,-4.1311,-4.1405,-4.1348,-4.1408,-4.1391,-4.1337,-4.1344,-4.1496,-4.1506,-4.1408,-4.1679,-4.1561,-4.1583,-4.1668,-4.1704,-4.1732,-4.1728,-4.1274,0,0,0,0,0,-4.1189,-4.1275,-4.1275,-4.1426,-4.1446,-4.1423,-4.1467,-4.1432,-4.1466,-4.1481,-4.1487,-4.1524,-4.16,-4.1652,-4.1722,-4.1907,-4.1911,-4.1994,-4.2023,-4.2046,-4.2067,-4.2165,-4.2202,-4.1805,-4.1805,-4.1805,0,0,-4.1302,-4.1315,-4.1373,-4.1457,-4.148,-4.1571,-4.1436,-4.1537,-4.1604,-4.1496,-4.163,-4.1636,-4.1673,-4.1836,-4.1908,-4.1849,-4.2177,-4.2068,-4.2087,-4.2095,-4.2186,-4.2224,-4.2258,-4.1817,-4.1815,-4.1813,0,0,-4.1553,-4.1572,-4.1699,-4.1725,-4.1761,-4.1744,-4.1775,-4.1794,-4.1794,-4.1927,-4.1848,-4.1926,-4.2059,-4.2089,-4.2121,-4.2382,-4.2319,-4.2406,-4.2558,-4.2654,-4.2685,-4.2713,-4.2807,-4.2841,-4.2427,-4.2427,-4.2427,0,-4.1689,-4.1821,-4.1772,-4.1879,-4.1918,-4.1824,-4.1952,-4.1979,-4.2037,-4.2067,-4.1999,-4.2164,-4.2182,-4.2351,-4.2414,-4.2443,-4.2477,-4.2404,-4.2685,-4.2712,-4.2737,-4.2826,-4.2861,-4.2437,-4.2436,-4.2435,-4.2434,0,-4.1986,-4.208,-4.2178,-4.2236,-4.2286,-4.2403,-4.2372,-4.2428,-4.2388,-4.2378,-4.2515,-4.2532,-4.2605,-4.2642,-4.2604,-4.2806,-4.2768,-4.2693,-4.2573,-4.2786,-4.2869,-4.2902,-4.2453,-4.2449,-4.2446,-4.2443,0,0,-4.234,-4.2368,-4.2405,-4.243,-4.2462,-4.2533,-4.2646,-4.2716,-4.2766,-4.2808,-4.2901,-4.3015,-4.2946,-4.2983,-4.2947,-4.3032,-4.3238,-4.2947,-4.2947,-4.3001,-4.3462,-4.3519,-4.356,-4.3195,-4.3202,-4.3207,-4.3459,0,-4.2591,-4.2785,-4.2743,-4.2934,-4.3019,-4.293,-4.3027,-4.3058,-4.3052,-4.3123,-4.3115,-4.3197,-4.31,-4.3121,-4.32,-4.3197,-4.333,-4.3177,-4.3283,-4.3287,-4.3278,-4.3603,-4.3664,-4.3902,-4.3491,-4.3497,-4.3501,0,-4.2909,-4.2964,-4.3163,-4.3181,-4.3215,-4.3304,-4.3365,-4.3434,-4.3466,-4.3455,-4.3496,-4.3444,-4.3555,-4.3432,-4.3585,-4.3482,-4.3522,-4.3526,-4.3534,-4.3544,-4.3408,-4.3623,-4.3976,-4.4013,-4.3551,-4.3547,-4.3543,0,-4.3149,-4.3271,-4.3406,-4.343,-4.3454,-4.3519,-4.3532,-4.3557,-4.3602,-4.3654,-4.3683,-4.3748,-4.3784,-4.3835,-4.3802,-4.3715,-4.3961,-4.3835,-4.3955,-4.3957,-4.4013,-4.401,-4.438,-4.4036,-4.4036,-4.4035,-4.4034,0,-4.3434,-4.356,-4.3514,-4.3598,-4.3736,-4.3686,-4.3824,-4.3826,-4.3849,-4.3932,-4.3857,-4.3936,-4.3886,-4.396,-4.3934,-4.4065,-4.4082,-4.4076,-4.4068,-4.4084,-4.4085,-4.4111,-4.4095,-4.4045,-4.4043,-4.4041,-4.4039,0,-4.3726,-4.37,-4.3842,-4.3852,-4.3858,-4.396,-4.3968,-4.4046,-4.4032,-4.4138,-4.4159,-4.4139,-4.4223,-4.4194,-4.4283,-4.4266,-4.4433,-4.4403,-4.4423,-4.4416,-4.4538,-4.4528,-4.4939,-4.499,-4.4613,-4.4616,-4.4619,0,-4.3911,-4.4006,-4.4026,-4.4076,-4.4094,-4.4175,-4.4219,-4.4173,-4.4223,-4.4266,-4.4339,-4.4415,-4.4475,-4.4613,-4.4606,-4.4674,-4.4646,-4.4785,-4.4656,-4.4669,-4.465,-4.4645,-4.4655,-4.4812,-4.4816,-4.482,-4.4823,0,-4.4242,-4.4224,-4.4292,-4.4355,-4.4411,-4.4458,-4.4499,-4.4544,-4.4499,-4.4559,-4.4644,-4.469,-4.478,-4.4858,-4.4919,-4.4932,-4.4872,-4.4863,-4.4895,-4.4913,-4.4921,-4.492,-4.4495,-4.4855,-4.4851,-4.4849,-4.4847,-4.4846,-4.4487,-4.4567,-4.4594,-4.4671,-4.4697,-4.4736,-4.481,-4.4805,-4.4875,-4.4945,-4.4913,-4.5011,-4.5039,-4.5115,-4.5136,-4.5212,-4.5158,-4.5204,-4.5216,-4.5228,-4.5245,-4.4908,-4.5223,-4.5222,-4.5221,-4.522,-4.5219,0,-4.4815,-4.4828,-4.4899,-4.4958,-4.5019,-4.4955,-4.4996,-4.5052,-4.5139,-4.517,-4.523,-4.5327,-4.5401,-4.54,-4.5469,-4.553,-4.5504,-4.555,-4.5546,-4.555,-4.5288,-4.5255,-4.557,-4.557,-4.557,-4.557,-4.557,-4.557,-4.4994,-4.5126,-4.5111,-4.5254,-4.5265,-4.536,-4.539,-4.5426,-4.5451,-4.5562,-4.5624,-4.5622,-4.564,-4.571,-4.5775,-4.5773,-4.5802,-4.586,-4.5847,-4.5603,-4.5568,-4.5535,-4.5503,-4.5866,-4.5866,-4.6102,-4.6104,-4.6106]},{"header":{"parameterUnit":"m.s-1","parameterCategory":1,"la1":30.2991,"la2":30.254,"lo1":-89.0895,"lo2":-89.0444,"dy":0.0017,"dx":0.0017,"nx":28,"ny":28,"refTime":"2024-11-29T03:00:00:Z","depth":0,"parameterNumber":3,"parameterNumberName":"V-component_of_WINDS"},"data":[0,0,0,0,0,0,0,0,0,0,0,0,0,0,0,0,0,0,0,0,0,0,0,0,0,0,0,0,0,0,0,0,0,0,0,0,0,0,0,0,0,0,0,0,0,0,0,0,0,0,0,0,0,0,0,0,0,0,-5.8811,-5.8812,0,-5.89,-5.8901,-5.8902,-5.8817,-5.8814,-5.881,-5.8807,-5.8893,-5.8899,-5.8904,0,0,0,0,0,0,0,0,0,0,0,0,0,-5.8561,-5.8566,-5.8811,-5.8812,-5.8813,-5.89,-5.8901,-5.8902,-5.8818,-5.8814,-5.8809,-5.8806,-5.8892,-5.8898,-5.8904,0,0,0,0,0,0,0,0,0,0,0,0,0,-5.8662,-5.8568,-5.8811,-5.8782,-5.878,-5.8899,-5.8901,-5.8902,-5.8819,-5.8813,-5.8808,-5.8804,-5.8889,-5.8897,-5.8905,-5.9057,0,0,-5.893,-5.8934,0,0,0,0,0,0,0,0,-5.8656,-5.8671,-5.8785,-5.8784,-5.8782,-5.8842,-5.8844,-5.8954,-5.882,-5.8804,-5.8807,-5.8801,-5.888,-5.8889,-5.8916,-5.9061,-5.9064,-5.8931,-5.8936,-5.8939,-5.8942,0,0,0,0,0,0,0,-5.8649,-5.8667,-5.8846,-5.8786,-5.8785,-5.8762,-5.8771,-5.8865,-5.8869,-5.8805,-5.8799,-5.8811,-5.8878,-5.8909,-5.8918,-5.9066,-5.8931,-5.8938,-5.8943,-5.8946,-5.9335,-5.9341,0,0,0,0,0,0,-5.8646,-5.8662,-5.8843,-5.8849,-5.8706,-5.877,-5.878,-5.8828,-5.8868,-5.8869,-5.8815,-5.8806,-5.8897,-5.8908,-5.892,-5.9098,-5.8939,-5.8947,-5.8952,-5.933,-5.9337,-5.9342,0,0,0,0,0,0,-5.8641,-5.8664,-5.8839,-5.8754,-5.8774,-5.878,-5.8835,-5.8832,-5.8863,-5.8876,-5.8875,-5.8846,-5.8894,-5.8909,-5.9023,-5.91,-5.8951,-5.8958,-5.9324,-5.9332,-5.934,-5.9457,0,0,0,0,0,0,-5.8635,-5.8662,-5.8722,-5.8756,-5.8779,-5.8943,-5.8839,-5.8838,-5.8878,-5.8867,-5.8904,-5.8905,-5.8891,-5.9011,-5.9031,-5.9109,-5.8964,-5.9317,-5.9327,-5.9337,-5.9446,-5.9468,-5.9487,0,0,0,0,0,-5.8626,-5.8751,-5.8725,-5.8747,-5.8854,-5.8948,-5.8961,-5.8943,-5.8884,-5.8943,-5.895,-5.8904,-5.9089,-5.9024,-5.9045,-5.9127,-5.9312,-5.9324,-5.9336,-5.9437,-5.9464,-5.9486,0,0,0,0,0,0,-5.8724,-5.8755,-5.8727,-5.8866,-5.8905,-5.8933,-5.9007,-5.8972,-5.9028,-5.9016,-5.8989,-5.8998,-5.9119,-5.9134,-5.9061,-5.9273,-5.919,-5.9207,-5.9259,-5.9285,-5.9305,-5.9298,-5.8971,0,0,0,0,0,-5.8763,-5.8838,-5.886,-5.8981,-5.9002,-5.9001,-5.9042,-5.9024,-5.9063,-5.9079,-5.9095,-5.9132,-5.9198,-5.9242,-5.9304,-5.9448,-5.9453,-5.9514,-5.9534,-5.9551,-5.9566,-5.964,-5.9667,-5.9383,-5.9383,-5.9382,0,0,-5.8842,-5.8867,-5.8917,-5.9001,-5.9029,-5.9106,-5.9016,-5.9101,-5.9157,-5.9091,-5.92,-5.9213,-5.9253,-5.9382,-5.9439,-5.9398,-5.9645,-5.9566,-5.958,-5.9585,-5.9655,-5.9682,-5.9706,-5.9391,-5.939,-5.9388,0,0,-5.9025,-5.9053,-5.9156,-5.9186,-5.923,-5.9229,-5.9253,-5.9287,-5.9293,-5.9402,-5.9353,-5.9418,-5.9533,-5.9563,-5.9593,-5.9786,-5.9745,-5.9807,-5.9912,-5.9985,-6.0008,-6.0027,-6.0094,-6.0119,-5.9821,-5.9822,-5.9822,0,-5.9117,-5.9233,-5.9213,-5.9302,-5.9339,-5.9284,-5.9386,-5.9415,-5.9477,-5.9503,-5.9456,-5.9598,-5.9621,-5.9755,-5.9802,-5.9829,-5.9854,-5.9802,-6.0006,-6.0026,-6.0044,-6.0107,-6.0133,-5.9829,-5.9828,-5.9827,-5.9827,0,-5.9343,-5.9424,-5.9501,-5.9563,-5.9609,-5.9705,-5.9696,-5.9745,-5.9723,-5.9726,-5.9836,-5.9861,-5.9926,-5.9957,-5.9936,-6.0088,-6.006,-6.0011,-5.9926,-6.0078,-6.0137,-6.0162,-5.9839,-5.9836,-5.9834,-5.9833,0,0,-5.9592,-5.964,-5.9669,-5.9695,-5.9739,-5.98,-5.9891,-5.9956,-5.9997,-6.004,-6.0115,-6.0212,-6.0166,-6.0201,-6.0182,-6.0247,-6.0395,-6.0188,-6.0189,-6.0225,-6.056,-6.0597,-6.0625,-6.0368,-6.0372,-6.0376,-6.0556,0,-5.9775,-5.9936,-5.9919,-6.0071,-6.0144,-6.0091,-6.017,-6.0204,-6.0209,-6.0269,-6.0273,-6.0342,-6.0277,-6.0297,-6.0358,-6.0364,-6.0461,-6.0351,-6.0434,-6.0438,-6.0425,-6.0656,-6.0696,-6.0864,-6.0579,-6.0583,-6.0586,0,-6.0011,-6.0064,-6.0224,-6.0254,-6.0284,-6.0356,-6.0412,-6.0472,-6.0508,-6.0506,-6.0544,-6.0514,-6.0603,-6.0517,-6.0638,-6.0563,-6.0596,-6.0604,-6.061,-6.0616,-6.0521,-6.0667,-6.0918,-6.0943,-6.0622,-6.0619,-6.0617,0,-6.0174,-6.0285,-6.0394,-6.0419,-6.0457,-6.0509,-6.0527,-6.0558,-6.0597,-6.0646,-6.0671,-6.0729,-6.076,-6.0805,-6.079,-6.073,-6.0913,-6.0827,-6.0912,-6.0913,-6.0953,-6.0951,-6.1211,-6.0977,-6.0976,-6.0976,-6.0975,0,-6.038,-6.0479,-6.0468,-6.0535,-6.0643,-6.0622,-6.0729,-6.0741,-6.0769,-6.0835,-6.0793,-6.0855,-6.0833,-6.0894,-6.0883,-6.0983,-6.0998,-6.0997,-6.0993,-6.1001,-6.1001,-6.1021,-6.1009,-6.0982,-6.0981,-6.098,-6.0979,0,-6.0581,-6.0577,-6.0693,-6.072,-6.0729,-6.0807,-6.0829,-6.0891,-6.0891,-6.0976,-6.0994,-6.0994,-6.1063,-6.1054,-6.113,-6.1123,-6.1247,-6.1229,-6.1236,-6.1231,-6.1316,-6.1308,-6.1599,-6.1635,-6.1378,-6.138,-6.1383,0,-6.0712,-6.0787,-6.0822,-6.0864,-6.0886,-6.0955,-6.0995,-6.0976,-6.1018,-6.1064,-6.112,-6.1185,-6.1237,-6.1349,-6.1355,-6.1412,-6.1394,-6.1492,-6.1403,-6.1407,-6.1394,-6.1389,-6.1395,-6.151,-6.1513,-6.1515,-6.1517,0,-6.0945,-6.0939,-6.0999,-6.1058,-6.1107,-6.1152,-6.1193,-6.1229,-6.1213,-6.1263,-6.1334,-6.1374,-6.1452,-6.1516,-6.157,-6.1586,-6.1549,-6.1545,-6.1567,-6.1576,-6.1576,-6.1575,-6.1282,-6.1538,-6.1536,-6.1535,-6.1533,-6.1533,-6.1113,-6.1177,-6.1211,-6.1279,-6.1307,-6.1346,-6.1405,-6.1412,-6.1472,-6.1535,-6.1519,-6.1599,-6.163,-6.1699,-6.172,-6.178,-6.1744,-6.1777,-6.1785,-6.1794,-6.1803,-6.1567,-6.179,-6.179,-6.1789,-6.1789,-6.1788,0,-6.1342,-6.1362,-6.1424,-6.1482,-6.1535,-6.1496,-6.1538,-6.1584,-6.1655,-6.1689,-6.174,-6.182,-6.1882,-6.1892,-6.195,-6.1996,-6.198,-6.2012,-6.2008,-6.2012,-6.1833,-6.1807,-6.2024,-6.2024,-6.2024,-6.2024,-6.2024,-6.2024,-6.1468,-6.1573,-6.157,-6.1688,-6.1705,-6.1784,-6.1811,-6.1846,-6.1872,-6.1964,-6.2015,-6.2022,-6.2045,-6.2105,-6.2159,-6.216,-6.2182,-6.2221,-6.2215,-6.2048,-6.2024,-6.2002,-6.1977,-6.2226,-6.2227,-6.2388,-6.239,-6.2391]}]]